This is the latest recevied weather packets stored in our database for station/object I3RKE-10. If no packets are shown the sender has not sent any weather packets the latest 10 day(s).
| Time | Temp. | Humidity | Pressure | Rain* | Wind** | Luminosity | Snow |
|---|---|---|---|---|---|---|---|
| 1788149059 | 73° F | 60% | 756.1 mmHg | - | - | - | - |
| 1788148156 | 75° F | 57% | 756.1 mmHg | - | - | - | - |
| 1788147256 | 74° F | 58% | 756.2 mmHg | - | - | - | - |
| 1788146356 | 75° F | 56% | 756.3 mmHg | - | - | - | - |
| 1788145456 | 75° F | 56% | 756.4 mmHg | - | - | - | - |
| 1788144556 | 75° F | 56% | 756.2 mmHg | - | - | - | - |
| 1788143656 | 75° F | 55% | 756.3 mmHg | - | - | - | - |
| 1788142756 | 76° F | 55% | 756.2 mmHg | - | - | - | - |
| 1788141856 | 75° F | 56% | 756.2 mmHg | - | - | - | - |
| 1788140956 | 77° F | 54% | 756.2 mmHg | - | - | - | - |
| 1788140056 | 76° F | 53% | 756.3 mmHg | - | - | - | - |
| 1788139156 | 77° F | 52% | 756.3 mmHg | - | - | - | - |
| 1788138255 | 77° F | 53% | 756.3 mmHg | - | - | - | - |
| 1788137355 | 77° F | 52% | 756.4 mmHg | - | - | - | - |
| 1788136455 | 77° F | 52% | 756.3 mmHg | - | - | - | - |
| 1788135555 | 79° F | 48% | 756.3 mmHg | - | - | - | - |
| 1788134655 | 78° F | 51% | 756.4 mmHg | - | - | - | - |
| 1788133755 | 79° F | 48% | 756.4 mmHg | - | - | - | - |
| 1788132855 | 80° F | 46% | 756.3 mmHg | - | - | - | - |
| 1788131955 | 79° F | 48% | 756.4 mmHg | - | - | - | - |
| 1788131055 | 78° F | 50% | 756.2 mmHg | - | - | - | - |
| 1788130155 | 78° F | 50% | 756.3 mmHg | - | - | - | - |
| 1788129254 | 78° F | 50% | 756.4 mmHg | - | - | - | - |
| 1788128354 | 79° F | 50% | 756.4 mmHg | - | - | - | - |
| 1788127454 | 79° F | 50% | 756.4 mmHg | - | - | - | - |
* Rain since midnight (hover to see other rain measurements)
** Current wind speed in m/s (hover to see current wind gust speed)